Find Hellas Sat 2

NORAD ID: 27811 Int'l Des: 2003-020 Owner: HELSA Country: GR operational
HEOCIRCULARGSO

リアルタイム位置

3D地球を読み込み中...

Hellas Sat 2について

説明を読み込み中...

次回通過

Passes for default location (London). Set your location on the main map for personalized predictions.

高度履歴

Loading altitude history...

軌道要素

1 27811U 03020A 26139.59296242 -.00000088 00000-0 00000+0 0 9990
2 27811 7.2860 68.2196 0003015 322.7998 49.7126 1.00270998 42567
Epoch: May 19, 2026 • Age: 11 hours

現在のステータス

高度 35795.8 km
速度 3.07 km/s
衛星直下点 -0.70°S, 10.06°W
打ち上げ日 May 13, 2003
運用期間 23 years
タイプ other

技術仕様

分類 Payload
質量 3250.00 kg
乾燥質量 1729.00 kg
総質量 3250.00 kg
長さ 4.80 m
直径 1.70 m
スパン 32.00 m
形状 Box + 2 Pan + 2 Dish
製造者 ASTD
バスタイプ Eurostar 2000+
フェーズステータス In Orbit
所有者/国 HELSA/GR

Most Searched